Location: Dötzum
(52.0808°N, 9.8063°E)
Time: 06:30:48
(UTC+00:00)

COSMOS 2455 - Pass Details

Date: 27 May 2022
Orbit: 901 x 908 km, 67.1° (Epoch: 28 June)

Event Time Altitude Azimuth Distance (km) Brightness Sun altitude
Exits shadow 02:08:46 - 214° (SW) 2,655 4.6 -7.7°
Reaches altitude 10° 02:08:57 10° 214° (SW) 2,586 4.5 -7.7°
Maximum altitude 02:14:58 87° 126° (SE) 917 2.9 -7.1°
Drops below altitude 10° 02:21:02 10° 39° (NE) 2,603 7.1 -6.5°
Sets 02:23:33 0° 39° (NE) 3,548 8.7 -6.2°
